Mongaup Valley, NY

1:04 AM EDT on August 26, 2016 (GMT -0400)
Sullivan County International

Weather History for KMSV - January, 2013

Change the Weather History Date:

Thursday, January 24, 2013

  Actual Average Record
Temperature  
Mean Temperature 4 °F -  
Max Temperature 14 °F 26 °F 55 °F (1999)
Min Temperature -5 °F 12 °F -9 °F (2011)
Degree Days  
Heating Degree Days 60    
Moisture  
Dew Point -5 °F    
Average Humidity 66    
Maximum Humidity 92    
Minimum Humidity 45    
Precipitation  
Precipitation 0.00 in - - ()
Sea Level Pressure  
Sea Level Pressure 30.15 in    
Wind  
Wind Speed 7 mph (NW)    
Max Wind Speed 23 mph    
Max Gust Speed 36 mph    
Visibility 10 miles    
Events      
Averages and records for this station are not official NWS values.
T = Trace of Precipitation, MM = Missing Value Source: NWS Daily Summary

Daily Weather History Graph

Daily Weather History Graph

Search for Another Location

Airport or City:

Trip Planner

Search our weather history database for the weather conditions in past years. The results will help you decide how hot, cold, wet, or windy it might be!

Date:

Astronomy

Jan. 24, 2013 Rise Set
Actual Time 7:18 AM EST 5:04 PM EST
Civil Twilight 6:48 AM EST 5:34 PM EST
Nautical Twilight 6:14 AM EST 6:08 PM EST
Astronomical Twilight 5:41 AM EST 6:41 PM EST
Moon 3:04 PM EST (1/24) 5:14 AM EST (1/24)
Length of Visible Light 10h 46m
Length of Day
9h 46m
Waxing Gibbous, 94% of the Moon is Illuminated
Jan 24
Waxing Gibbous
Jan 26
Full
Feb 3
Last Quarter
Feb 10
New
Feb 17
First Quarter

Hourly Weather History & Observations

Time (EST) Temp. Windchill Dew Point Humidity Pressure Visibility Wind Dir Wind Speed Gust Speed Precip Events Conditions
12:15 AM -2.2 °F - -7.6 °F 78% 30.04 in 10.0 mi Calm Calm - N/A   Clear
12:35 AM -4.0 °F - -11.2 °F 71% 30.04 in 10.0 mi Calm Calm - N/A   Clear
12:55 AM -4.0 °F - -7.6 °F 85% 30.03 in 10.0 mi Calm Calm - N/A   Clear
1:15 AM -5.8 °F - - N/A% 30.03 in 10.0 mi Calm Calm - N/A   Clear
1:35 AM -5.8 °F - -9.4 °F 84% 30.03 in 10.0 mi Calm Calm - N/A   Clear
1:55 AM -5.8 °F - -9.4 °F 84% 30.02 in 10.0 mi Calm Calm - N/A   Clear
2:15 AM -5.8 °F - -11.2 °F 77% 30.03 in 10.0 mi Calm Calm - N/A   Clear
2:35 AM -5.8 °F - -7.6 °F 92% 30.02 in 10.0 mi Calm Calm - N/A   Clear
2:55 AM -5.8 °F - -11.2 °F 77% 30.01 in 10.0 mi Calm Calm - N/A   Clear
3:15 AM -5.8 °F - -7.6 °F 92% 30.01 in 10.0 mi Calm Calm - N/A   Clear
3:35 AM -5.8 °F - -9.4 °F 84% 30.02 in 10.0 mi Calm Calm - N/A   Partly Cloudy
3:55 AM -5.8 °F - -11.2 °F 77% 30.02 in 10.0 mi Calm Calm - N/A   Scattered Clouds
4:15 AM -5.8 °F - -9.4 °F 84% 30.02 in 10.0 mi Calm Calm - N/A   Scattered Clouds
4:35 AM -5.8 °F - -9.4 °F 84% 30.02 in 10.0 mi Calm Calm - N/A   Scattered Clouds
4:55 AM -5.8 °F -14.5 °F -9.4 °F 84% 30.03 in 10.0 mi WNW 3.5 mph - N/A   Partly Cloudy
5:15 AM -4.0 °F - -9.4 °F 78% 30.03 in 10.0 mi Calm Calm - N/A   Clear
5:35 AM -5.8 °F - -11.2 °F 77% 30.04 in 10.0 mi Calm Calm - N/A   Clear
5:55 AM -4.0 °F -16.3 °F -7.6 °F 85% 30.04 in 10.0 mi WNW 5.8 mph - N/A   Partly Cloudy
6:15 AM -4.0 °F -12.4 °F -9.4 °F 78% 30.05 in 10.0 mi WNW 3.5 mph - N/A   Clear
6:35 AM -4.0 °F - -9.4 °F 78% 30.06 in 10.0 mi Calm Calm - N/A   Clear
6:55 AM -4.0 °F - -9.4 °F 78% 30.06 in 10.0 mi Calm Calm - N/A   Clear
7:15 AM -4.0 °F - -7.6 °F 85% 30.07 in 10.0 mi Calm Calm - N/A   Clear
7:35 AM -4.0 °F - -9.4 °F 78% 30.08 in 10.0 mi Calm Calm - N/A   Clear
7:55 AM -4.0 °F -14.6 °F -7.6 °F 85% 30.08 in 10.0 mi WNW 4.6 mph - N/A   Clear
8:15 AM -0.4 °F -8.3 °F -2.2 °F 92% 30.10 in 10.0 mi WNW 3.5 mph - N/A   Clear
8:35 AM -0.4 °F -10.4 °F -11.2 °F 60% 30.10 in 10.0 mi WNW 4.6 mph - N/A   Clear
8:55 AM 1.4 °F -8.3 °F -0.4 °F 92% 30.11 in 10.0 mi WNW 4.6 mph - N/A   Clear
9:15 AM 5.0 °F -4.1 °F -0.4 °F 78% 30.12 in 10.0 mi NW 4.6 mph - N/A   Clear
9:35 AM 6.8 °F -7.8 °F -0.4 °F 72% 30.12 in 10.0 mi NNW 10.4 mph - N/A   Clear
9:55 AM 8.6 °F -6.3 °F -0.4 °F 67% 30.13 in 10.0 mi NW 11.5 mph - N/A   Clear
10:15 AM 8.6 °F -5.5 °F -0.4 °F 67% 30.14 in 10.0 mi NW 10.4 mph - N/A   Clear
10:35 AM 10.4 °F -5.4 °F -0.4 °F 62% 30.15 in 10.0 mi NNW 13.8 mph - N/A   Clear
10:55 AM 10.4 °F -6.6 °F -0.4 °F 62% 30.14 in 10.0 mi NW 16.1 mph 24.2 mph N/A   Clear
11:15 AM 12.2 °F -5.8 °F -2.2 °F 53% 30.15 in 10.0 mi NW 19.6 mph 24.2 mph N/A   Clear
11:35 AM 12.2 °F -7.1 °F -2.2 °F 53% 30.15 in 10.0 mi NNW 23.0 mph 28.8 mph N/A   Clear
11:55 AM 14.0 °F -3.4 °F -0.4 °F 53% 30.15 in 10.0 mi NNW 19.6 mph 29.9 mph N/A   Mostly Cloudy
12:15 PM 12.2 °F -6.7 °F -2.2 °F 53% 30.14 in 10.0 mi NW 21.9 mph 32.2 mph N/A   Mostly Cloudy
12:35 PM 12.2 °F -6.7 °F -5.8 °F 45% 30.15 in 10.0 mi NW 21.9 mph 32.2 mph N/A   Mostly Cloudy
12:55 PM 12.2 °F -7.1 °F -4.0 °F 48% 30.16 in 10.0 mi NW 23.0 mph 29.9 mph N/A   Mostly Cloudy
1:15 PM 12.2 °F -4.8 °F -2.2 °F 53% 30.16 in 10.0 mi WNW 17.3 mph 28.8 mph N/A   Mostly Cloudy
1:35 PM 14.0 °F -3.9 °F -0.4 °F 53% 30.16 in 10.0 mi NW 20.7 mph 26.5 mph N/A   Mostly Cloudy
1:55 PM 12.2 °F -4.8 °F -2.2 °F 53% 30.17 in 10.0 mi NW 17.3 mph 33.4 mph N/A   Mostly Cloudy
2:15 PM 12.2 °F -5.3 °F -0.4 °F 57% 30.17 in 10.0 mi NW 18.4 mph 35.7 mph N/A   Scattered Clouds
2:35 PM 12.2 °F -4.8 °F -4.0 °F 48% 30.19 in 10.0 mi NW 17.3 mph 32.2 mph N/A   Mostly Cloudy
2:55 PM 12.2 °F -6.3 °F -2.2 °F 53% 30.19 in 10.0 mi NW 20.7 mph 26.5 mph N/A   Scattered Clouds
3:15 PM 14.0 °F -3.4 °F -4.0 °F 45% 30.19 in 10.0 mi WNW 19.6 mph 29.9 mph N/A   Clear
3:35 PM 12.2 °F -2.5 °F -5.8 °F 45% 30.20 in 10.0 mi WNW 12.7 mph - N/A   Clear
3:55 PM 12.2 °F -3.1 °F -2.2 °F 53% 30.21 in 10.0 mi WNW 13.8 mph 26.5 mph N/A   Clear
4:15 PM 12.2 °F -7.1 °F -5.8 °F 45% 30.21 in 10.0 mi WNW 23.0 mph 33.4 mph N/A   Clear
4:35 PM 12.2 °F -4.8 °F -5.8 °F 45% 30.21 in 10.0 mi NW 17.3 mph 25.3 mph N/A   Clear
4:55 PM 10.4 °F -3.3 °F -5.8 °F 48% 30.22 in 10.0 mi WNW 10.4 mph 20.7 mph N/A   Clear
5:15 PM 10.4 °F -6.6 °F -5.8 °F 48% 30.23 in 10.0 mi WNW 16.1 mph 29.9 mph N/A   Clear
5:35 PM 8.6 °F -10.5 °F -5.8 °F 52% 30.24 in 10.0 mi WNW 19.6 mph 32.2 mph N/A   Clear
5:55 PM 8.6 °F -7.7 °F -5.8 °F 52% 30.25 in 10.0 mi WNW 13.8 mph 28.8 mph N/A   Clear
6:15 PM 8.6 °F -8.3 °F -4.0 °F 57% 30.25 in 10.0 mi WNW 15.0 mph 23.0 mph N/A   Clear
6:35 PM 8.6 °F -7.0 °F -4.0 °F 57% 30.26 in 10.0 mi WNW 12.7 mph 20.7 mph N/A   Clear
6:55 PM 8.6 °F -9.5 °F -2.2 °F 62% 30.26 in 10.0 mi WNW 17.3 mph 24.2 mph N/A   Clear
7:15 PM 8.6 °F -10.5 °F -4.0 °F 57% 30.26 in 10.0 mi WNW 19.6 mph 26.5 mph N/A   Clear
7:35 PM 8.6 °F -8.9 °F -2.2 °F 62% 30.27 in 10.0 mi WNW 16.1 mph 20.7 mph N/A   Clear
7:55 PM 8.6 °F -8.9 °F -2.2 °F 62% 30.27 in 10.0 mi WNW 16.1 mph 25.3 mph N/A   Clear
8:15 PM 8.6 °F -7.0 °F -4.0 °F 57% 30.27 in 10.0 mi WNW 12.7 mph - N/A   Clear
8:35 PM 6.8 °F -11.3 °F -2.2 °F 67% 30.26 in 10.0 mi WNW 16.1 mph 26.5 mph N/A   Clear
8:55 PM 6.8 °F -11.8 °F -2.2 °F 67% 30.27 in 10.0 mi WNW 17.3 mph 25.3 mph N/A   Clear
9:15 PM 6.8 °F -10.7 °F -2.2 °F 67% 30.28 in 10.0 mi NW 15.0 mph 25.3 mph N/A   Clear
9:35 PM 6.8 °F -10.0 °F -4.0 °F 61% 30.28 in 10.0 mi NW 13.8 mph 21.9 mph N/A   Clear
9:55 PM 6.8 °F -9.3 °F -2.2 °F 67% 30.29 in 10.0 mi WNW 12.7 mph 20.7 mph N/A   Clear
10:15 PM 6.8 °F -11.8 °F -4.0 °F 61% 30.28 in 10.0 mi WNW 17.3 mph 25.3 mph N/A   Clear
10:35 PM 6.8 °F -11.3 °F -4.0 °F 61% 30.28 in 10.0 mi WNW 16.1 mph 25.3 mph N/A   Clear
10:55 PM 6.8 °F -6.9 °F -4.0 °F 61% 30.29 in 10.0 mi NW 9.2 mph 21.9 mph N/A   Clear
11:15 PM 6.8 °F -6.9 °F -2.2 °F 67% 30.29 in 10.0 mi WNW 9.2 mph 19.6 mph N/A   Clear
11:35 PM 6.8 °F -7.8 °F -4.0 °F 61% 30.29 in 10.0 mi WNW 10.4 mph 17.3 mph N/A   Partly Cloudy
11:55 PM 6.8 °F -6.9 °F -2.2 °F 67% 30.29 in 10.0 mi West 9.2 mph - N/A   Partly Cloudy